Tracking 33744 objects as of 14-Apr-2026
HD Live streaming from Space Station
objects crossing your sky now

NOAA 16 DEB

Track NOAA 16 DEB now!
10-day predictions


NORAD ID: 41508
Int'l Code: 2000-055MG
Perigee: 766.5 km
Apogee: 803.8 km
Inclination: 98.9 °
Period: 100.4 minutes
Semi major axis: 7156 km
RCS: Unknown
Launch date: September 21, 2000
Source: United States (US)
Launch site: AIR FORCE WESTERN TEST RANGE (AFWTR)

Note: This is SATELLITE DEBRIS
Your satellite tracking list
Your tracking list is empty




NASA's NSSDC Master Catalog

Two Line Element Set (TLE):
1 41508U 00055MG  26104.61234579  .00002306  00000-0  83708-3 0  9998
2 41508  98.8586 229.0939 0026013 110.6465 249.7512 14.34115441517532
Source of the keplerian elements: AFSPC